Tracking 30970 objects as of 3-Jul-2025
HD Live streaming from Space Station
objects crossing your sky now

STARLINK-31428

Track STARLINK-31428 now!
10-day predictions
STARLINK-31428 is classified as:


NORAD ID: 59367
Int'l Code: 2024-060V
Perigee: 489.7 km
Apogee: 490.7 km
Inclination: 43.0 °
Period: 94.3 minutes
Semi major axis: 6861 km
RCS: Unknown
Launch date: March 31, 2024
Source: United States (US)
Launch site: AIR FORCE EASTERN TEST RANGE (AFETR)
Your satellite tracking list
EUTE 5 WEST A (STELLAT5)
Track 1 satellite(s)




NASA's NSSDC Master Catalog

Two Line Element Set (TLE):
1 59367U 24060V   25183.83944858 -.00000972  00000-0 -25822-4 0  9993
2 59367  43.0012 230.6921 0000751 270.0493  90.0272 15.27575505 71856
Source of the keplerian elements: AFSPC